TimeEST,TemperatureF,Dew PointF,Humidity,Sea Level PressureIn,VisibilityMPH,Wind Direction,Wind SpeedMPH,Gust SpeedMPH,PrecipitationIn,Events,Conditions,WindDirDegrees,DateUTC
12:54 AM,48.0,25.0,41,30.19,10.0,Variable,4.6,-,N/A,,Clear,0,2013-02-07 05:54:00
1:54 AM,48.0,25.0,41,30.20,10.0,Variable,4.6,-,N/A,,Clear,0,2013-02-07 06:54:00
2:54 AM,45.0,26.1,48,30.22,10.0,Calm,Calm,-,N/A,,Clear,0,2013-02-07 07:54:00
3:54 AM,44.1,26.1,49,30.20,10.0,ENE,3.5,-,N/A,,Clear,60,2013-02-07 08:54:00
4:54 AM,44.1,27.0,51,30.23,10.0,NE,3.5,-,N/A,,Clear,50,2013-02-07 09:54:00
5:54 AM,43.0,28.9,58,30.25,10.0,NNE,5.8,-,N/A,,Clear,30,2013-02-07 10:54:00
6:54 AM,42.1,28.9,60,30.26,10.0,NNE,5.8,-,N/A,,Clear,30,2013-02-07 11:54:00
7:54 AM,43.0,30.9,62,30.26,10.0,NE,8.1,-,N/A,,Scattered Clouds,50,2013-02-07 12:54:00
8:54 AM,43.0,34.0,71,30.27,9.0,ENE,9.2,-,N/A,,Mostly Cloudy,70,2013-02-07 13:54:00
9:54 AM,44.1,36.0,73,30.26,8.0,NE,9.2,-,N/A,,Scattered Clouds,50,2013-02-07 14:54:00
10:54 AM,46.0,36.0,68,30.26,8.0,NNE,11.5,-,N/A,,Scattered Clouds,30,2013-02-07 15:54:00
11:54 AM,46.0,37.0,71,30.22,7.0,NNE,10.4,-,N/A,,Overcast,30,2013-02-07 16:54:00
12:54 PM,45.0,37.9,76,30.18,6.0,NE,9.2,-,0.00,Rain,Light Rain,40,2013-02-07 17:54:00
1:54 PM,45.0,39.0,80,30.16,5.0,NE,6.9,-,0.01,Rain,Light Rain,50,2013-02-07 18:54:00
2:54 PM,43.0,41.0,93,30.16,3.0,NNE,9.2,-,0.02,Rain,Light Rain,30,2013-02-07 19:54:00
3:24 PM,42.1,39.9,92,30.15,2.5,NNE,8.1,-,0.01,Rain,Light Rain,30,2013-02-07 20:24:00
3:38 PM,42.1,39.9,92,30.13,2.5,NNE,9.2,-,0.02,Rain,Light Rain,30,2013-02-07 20:38:00
3:54 PM,42.1,39.9,92,30.15,2.5,NE,9.2,-,0.02,Rain,Light Rain,40,2013-02-07 20:54:00
4:16 PM,42.1,39.9,92,30.12,2.5,NE,9.2,-,0.01,Rain,Light Rain,40,2013-02-07 21:16:00
4:45 PM,42.1,41.0,96,30.10,1.8,NE,6.9,-,0.03,Rain,Light Rain,40,2013-02-07 21:45:00
4:54 PM,42.1,41.0,96,30.11,2.0,NE,6.9,-,0.03,Rain,Light Rain,40,2013-02-07 21:54:00
5:54 PM,42.1,41.0,96,30.09,2.0,NE,6.9,18.4,0.02,Rain,Light Rain,40,2013-02-07 22:54:00
6:10 PM,42.1,41.0,96,30.07,3.0,NE,8.1,-,0.01,Rain,Light Rain,40,2013-02-07 23:10:00
6:54 PM,41.0,39.9,96,30.09,3.0,NE,8.1,-,0.03,Rain,Light Rain,40,2013-02-07 23:54:00
7:44 PM,41.0,39.9,96,30.05,2.5,NNE,11.5,-,0.04,Rain,Light Rain,30,2013-02-08 00:44:00
7:54 PM,39.9,39.0,97,30.06,3.0,NNE,9.2,-,0.05,Rain,Light Rain,30,2013-02-08 00:54:00
8:02 PM,39.9,39.0,97,30.05,2.5,NNE,11.5,16.1,0.01,Rain,Light Rain,30,2013-02-08 01:02:00
8:54 PM,39.9,39.0,97,30.05,2.5,NNE,9.2,-,0.11,Rain,Rain,30,2013-02-08 01:54:00
9:08 PM,39.9,39.0,97,30.03,3.0,NNE,9.2,19.6,0.03,Rain,Rain,30,2013-02-08 02:08:00
9:54 PM,39.9,39.0,97,30.03,4.0,NNE,10.4,19.6,0.11,Rain,Rain,20,2013-02-08 02:54:00
10:54 PM,39.9,39.0,97,30.00,4.0,NNE,12.7,-,0.07,Rain,Light Rain,20,2013-02-08 03:54:00
11:33 PM,41.0,39.9,96,29.97,8.0,NNE,12.7,-,0.02,Rain,Light Rain,30,2013-02-08 04:33:00
11:54 PM,41.0,39.9,96,29.97,7.0,NNE,16.1,21.9,0.03,Rain,Light Rain,30,2013-02-08 04:54:00